Location: Asheville, NC
(35.6000°N, 82.5500°W)
Time: 09:36:54
(UTC-04:00)

CUBEBUG 2 - Pass Details

Date: 14 March 2018
Orbit: 586 x 700 km, 97.6° (Epoch: 24 June)

Event Time Altitude Azimuth Distance (km) Brightness Sun altitude
Rises 20:36:17 0° 193° (SSW) 3,016 ? -12.9°
Reaches altitude 10° 20:38:49 10° 205° (SSW) 2,089 ? -13.4°
Maximum altitude 20:42:41 27° 263° (W) 1,255 ? -14.2°
Drops below altitude 10° 20:46:30 10° 322° (NW) 2,042 ? -14.9°
Sets 20:48:57 0° 335° (NNW) 2,935 ? -15.4°
